Location: Vihti�l�
(61.3833°N, 23.0667°E)
Time: 04:33:54
(UTC+00:00)

Cosmos 1269 Rocket - Pass Details

Date: 29 November 2020
Orbit: 773 x 778 km, 74.1° (Epoch: 19 January)

Event Time Altitude Azimuth Distance (km) Brightness Sun altitude
Exits shadow 05:09:24 13° 325° (NW) 2,159 5.8 -12.7°
Maximum altitude 05:14:15 82° 239° (WSW) 791 4.0 -12.2°
Drops below altitude 10° 05:19:32 10° 152° (SSE) 2,322 7.3 -11.6°
Sets 05:21:54 0° 152° (SSE) 3,245 8.2 -11.3°
